This demonstration page uses our WeatherBlox Daily Observations layout. Learn more.

Hourly Observations for June 9, 2020

Temp ( °F °C ) Dew Point ( °F °C ) Humidity (%) Winds ( mph kmh ) Pressure ( in mb ) Visibility ( mi km ) Precip ( " mm )
12:54 am 00:54 Clear 77 25 63 17.2 62 62 SE 9 15 29.58 1002 10 16.0934 0 0
1:54 am 01:54 Clear 77 25 63 17.2 62 62 SE 16 26 29.57 1001 10 16.0934 0 0
2:54 am 02:54 Clear 75 23.9 64 17.8 69 69 SSE 10 17 29.57 1001 10 16.0934 0 0
3:54 am 03:54 Clear 73 22.8 64 17.8 74 74 SSE 7 11 29.54 1001 10 16.0934 0 0
4:54 am 04:54 Clear 71 21.7 64 17.8 79 79 ESE 5 7 29.53 1000 10 16.0934 0 0
5:54 am 05:54 Clear 71 21.7 64 17.8 79 79 ESE 8 13 29.52 1000 10 16.0934 0 0
6:54 am 06:54 Sunny 72 22.2 66 18.9 82 82 SE 8 13 29.51 999 10 16.0934 0 0
7:54 am 07:54 Sunny 75 23.9 67 19.4 76 76 SE 12 19 29.5 999 10 16.0934 0 0
8:54 am 08:54 Mostly Sunny 78 25.6 68 20 71 71 SE 7 11 29.51 999 10 16.0934 0 0
9:52 am 09:52 Mostly Cloudy 81 27 68 20 66 66 E 9 15 29.48 998 10 16.0934 0 0
9:54 am 09:54 Mostly Cloudy 81 27.2 69 20.6 67 67 E 8 13 29.49 999 10 16.0934 0 0
10:07 am 10:07 Cloudy 79 26.1 68 20 69 69 ESE 9 15 29.47 998 10 16.0934 0 0
10:54 am 10:54 Mostly Cloudy 82 27.8 69 20.6 65 65 E 9 15 29.47 998 10 16.0934 0 0
11:54 am 11:54 Sunny 86 30 69 20.6 57 57 ESE 12 19 29.45 997 10 16.0934 0 0
12:54 pm 12:54 Partly Cloudy 87 30.6 68 20 53 53 E 13 20 29.44 997 10 16.0934 0 0
1:54 pm 13:54 Mostly Cloudy 89 31.7 68 20 50 50 E 15 24 29.42 996 10 16.0934 0 0
2:54 pm 14:54 Cloudy 85 29.4 67 19.4 55 55 ESE 9 15 29.41 996 10 16.0934 0 0
3:54 pm 15:54 Partly Cloudy 87 30.6 68 20 53 53 SE 12 19 29.4 996 10 16.0934 0 0
4:54 pm 16:54 Mostly Cloudy 87 30.6 68 20 53 53 SE 7 11 29.38 995 10 16.0934 0 0
5:54 pm 17:54 Mostly Cloudy 72 22.2 62 16.7 71 71 NNW 24 39 29.41 996 10 16.0934 0 0
6:12 pm 18:12 Mostly Cloudy with Light Rain 68 20 61 16.1 78 78 NNW 32 52 29.42 996 9 14.48406 0.001 0.001
6:29 pm 18:29 Cloudy with Nearby Thunderstorms 65 18.3 60 15.6 84 84 NNW 26 43 29.44 997 4 6.43736 0.001 0.001
6:44 pm 18:44 Cloudy with Nearby Thunderstorms 64 17.8 60 15.6 87 87 N 26 43 29.43 997 9 14.48406 0.03 0.762
6:54 pm 18:54 Cloudy with Light Rain 64 17.8 60 15.6 87 87 N 28 44 29.41 996 10 16.0934 0.03 0.762
7:12 pm 19:12 Cloudy with Nearby Thunderstorms 64 17.8 60 15.6 87 87 NNW 29 46 29.42 996 10 16.0934 0.001 0.001
7:28 pm 19:28 Cloudy with Thunderstorms 63 17.2 59 15 87 87 NNW 31 50 29.44 997 10 16.0934 0.001 0.001
7:43 pm 19:43 Cloudy with Heavy Thunderstorms 62 16.7 58 14.4 86 86 NNW 25 41 29.48 998 1.5 2.41401 0.001 0.001
7:51 pm 19:51 Cloudy with Nearby Thunderstorms 63 17 57 14 83 83 NNW 32 52 29.43 997 1 1.60934 0.07 1.778
7:54 pm 19:54 Cloudy with Nearby Thunderstorms 61 16.1 58 14.4 90 90 NNW 30 48 29.43 997 2 3.21868 0.1 2.54
8:04 pm 20:04 Mostly Cloudy with Nearby Thunderstorms 62 16.7 58 14.4 86 86 N 31 50 29.44 997 8 12.87472 0.03 0.762
8:13 pm 20:13 Mostly Cloudy with Light Rain 61 16.1 57 13.9 87 87 N 24 39 29.47 998 10 16.0934 0.03 0.762
8:23 pm 20:23 Cloudy 62 16.7 58 14.4 86 86 N 24 39 29.46 998 10 16.0934 0.03 0.762
8:30 pm 20:30 Cloudy 62 16.7 57 13.9 84 84 N 30 48 29.45 997 10 16.0934 0.03 0.762
8:54 pm 20:54 Cloudy 62 16.7 57 13.9 84 84 N 28 44 29.46 998 10 16.0934 0.03 0.762
9:52 pm 21:52 Cloudy 61 16 54 12 77 77 N 32 52 29.52 1000 10 16.0934 0 0
9:54 pm 21:54 Cloudy with Light Rain 60 15.6 53 11.7 78 78 N 32 52 29.51 999 10 16.0934 0.001 0.001
10:54 pm 22:54 Cloudy 60 15.6 52 11.1 75 75 N 38 61 29.51 999 10 16.0934 0.001 0.001
11:54 pm 23:54 Cloudy 60 15.6 51 10.6 72 72 N 30 48 29.55 1001 10 16.0934 0 0

Powered by AerisWeather